Date String (YYYY-MM-DD hh:mm:ss) UTC,Instrument flags,Ambient pressure (hPa),Sample flow (lpm),Bypass flow (lpm),Sample temperature (°C),Ambient temperature (°C),ASC tube jacket temperature (°C),LED temperature (°C),Box temperature (°C),Sample RH (%),Span deviation,Mass concentration (μg/m³),Mass concentration (μg/m³),Mass concentration (μg/m³)
DateTimeUTC,F1_M11,P_M11,Q1_M11,Q2_M11,T1_M11,T2_M11,T3_M11,T4_M11,T5_M11,U1_M11,ZSPAN_M11,X0_M11,X2_M11,X1_M11
2022-06-22 15:00:00,,0833.6,5.01,0.00,29.6,28.1,00.0,38.5,31.4,18.4,0000.0,0012.63,0003.94,0002.89
2022-06-22 15:01:00,,0833.6,5.00,0.00,29.6,28.2,00.0,38.5,31.4,18.3,0000.0,0012.65,0003.97,0002.89
2022-06-22 15:02:00,,0833.6,4.99,0.00,29.6,28.3,00.0,38.5,31.5,18.3,0000.0,0012.86,0003.99,0002.89
2022-06-22 15:03:00,,0833.6,5.00,0.00,29.6,28.4,00.0,38.5,31.5,18.4,0000.0,0013.47,0004.06,0002.88
2022-06-22 15:04:00,,0833.6,5.01,0.00,29.6,28.5,00.0,38.5,31.5,18.3,0000.0,0012.85,0004.07,0002.87
2022-06-22 15:05:00,,0833.6,5.00,0.00,29.7,28.5,00.0,38.5,31.5,18.4,0000.0,0012.51,0004.08,0002.85
2022-06-22 15:06:00,,0833.6,5.00,0.00,29.7,28.6,00.0,38.5,31.6,18.4,0000.0,0011.83,0004.09,0002.85
2022-06-22 15:07:00,,0833.6,4.99,0.00,29.7,28.7,00.0,38.5,31.6,18.4,0000.0,0011.97,0004.13,0002.86
2022-06-22 15:08:00,,0833.6,5.01,0.00,29.7,28.7,00.0,38.5,31.6,18.5,0000.0,0011.85,0004.15,0002.85
2022-06-22 15:09:00,,0833.6,5.01,0.00,29.7,28.8,00.0,38.5,31.7,18.5,0000.0,0011.58,0004.17,0002.88
2022-06-22 15:10:00,,0833.6,4.99,0.00,29.8,28.8,00.0,38.5,31.7,18.5,0000.0,0011.62,0004.23,0002.89
2022-06-22 15:11:00,,0833.6,5.00,0.00,29.8,28.9,00.0,38.6,31.7,18.4,0000.0,0011.43,0004.21,0002.89
2022-06-22 15:12:00,,0833.6,5.00,0.00,29.8,28.5,00.0,38.5,31.7,18.4,0000.0,0011.51,0004.22,0002.89
2022-06-22 15:13:00,,0833.6,5.01,0.00,29.7,27.6,00.0,38.4,31.4,18.5,0000.0,0011.57,0004.19,0002.90
2022-06-22 15:14:00,,0833.6,5.00,0.00,29.7,27.3,00.0,38.4,31.3,18.6,0000.0,0010.86,0004.18,0002.90
2022-06-22 15:15:00,,0833.6,5.00,0.00,29.6,27.3,00.0,38.4,31.3,18.8,0000.0,0010.47,0004.15,0002.89
2022-06-22 15:16:00,,0833.6,5.00,0.00,29.5,27.4,00.0,38.4,31.2,18.8,0000.0,0009.83,0004.10,0002.91
2022-06-22 15:17:00,,0833.6,5.00,0.00,29.5,27.5,00.0,38.4,31.3,18.9,0000.0,0009.74,0004.15,0002.93
2022-06-22 15:18:00,,0833.7,5.00,0.00,29.5,27.7,00.0,38.4,31.3,18.9,0000.0,0009.77,0004.16,0002.95
2022-06-22 15:19:00,,0833.6,5.00,0.00,29.5,27.8,00.0,38.4,31.3,18.8,0000.0,0009.77,0004.16,0002.96
2022-06-22 15:20:00,,0833.6,5.00,0.00,29.5,28.0,00.0,38.4,31.3,18.8,0000.0,0009.71,0004.12,0002.93
2022-06-22 15:21:00,,0833.6,5.01,0.00,29.5,28.1,00.0,38.4,31.3,18.7,0000.0,0009.64,0004.10,0002.92
2022-06-22 15:22:00,,0833.6,5.00,0.00,29.5,28.2,00.0,38.4,31.4,18.6,0000.0,0009.13,0004.08,0002.90
2022-06-22 15:23:00,,0833.6,5.00,0.00,29.5,28.3,00.0,38.4,31.4,18.6,0000.0,0009.16,0004.09,0002.90
2022-06-22 15:24:00,,0833.6,4.99,0.00,29.6,28.4,00.0,38.4,31.5,18.6,0000.0,0008.95,0004.13,0002.89
2022-06-22 15:25:00,,0833.6,5.00,0.00,29.6,28.5,00.0,38.4,31.5,18.6,0000.0,0009.14,0004.12,0002.87
2022-06-22 15:26:00,,0833.6,5.00,0.00,29.6,28.6,00.0,38.4,31.5,18.6,0000.0,0009.75,0004.07,0002.86
2022-06-22 15:27:00,,0833.6,5.01,0.00,29.6,28.6,00.0,38.4,31.5,18.6,0000.0,0009.98,0004.12,0002.86
2022-06-22 15:28:00,,0833.6,4.99,0.00,29.7,28.7,00.0,38.4,31.6,18.6,0000.0,0010.10,0004.12,0002.86
2022-06-22 15:29:00,,0833.6,5.01,0.00,29.7,28.7,00.0,38.4,31.6,18.6,0000.0,0010.49,0004.04,0002.83
2022-06-22 15:30:00,,0833.6,4.99,0.00,29.7,28.1,00.0,38.4,31.4,18.6,0000.0,0010.35,0004.02,0002.82
2022-06-22 15:31:00,,0833.6,5.00,0.00,29.6,27.2,00.0,38.3,31.2,18.7,0000.0,0010.40,0004.04,0002.85
2022-06-22 15:32:00,,0833.6,5.00,0.00,29.5,27.1,00.0,38.3,31.1,18.7,0000.0,0010.41,0004.04,0002.86
2022-06-22 15:33:00,,0833.6,5.00,0.00,29.4,27.2,00.0,38.3,31.1,18.7,0000.0,0010.70,0004.02,0002.87
2022-06-22 15:34:00,,0833.6,4.99,0.00,29.4,27.3,00.0,38.3,31.1,18.7,0000.0,0011.32,0004.07,0002.88
2022-06-22 15:35:00,,0833.6,4.99,0.00,29.4,27.5,00.0,38.2,31.2,18.7,0000.0,0011.13,0004.01,0002.87
2022-06-22 15:36:00,,0833.6,5.00,0.00,29.4,27.6,00.0,38.2,31.2,18.7,0000.0,0010.72,0003.97,0002.88
2022-06-22 15:37:00,,0833.6,5.00,0.00,29.4,27.8,00.0,38.2,31.2,18.6,0000.0,0010.34,0003.98,0002.88
2022-06-22 15:38:00,,0833.6,5.01,0.00,29.4,27.9,00.0,38.2,31.2,18.6,0000.0,0010.69,0003.96,0002.86
2022-06-22 15:39:00,,0833.5,5.00,0.00,29.4,28.0,00.0,38.2,31.3,18.5,0000.0,0010.52,0003.94,0002.83
2022-06-22 15:40:00,,0833.5,5.00,0.00,29.4,28.1,00.0,38.2,31.3,18.5,0000.0,0009.89,0003.95,0002.83
2022-06-22 15:41:00,,0833.5,4.99,0.00,29.4,28.3,00.0,38.2,31.3,18.5,0000.0,0010.17,0003.99,0002.82
2022-06-22 15:42:00,,0833.5,5.00,0.00,29.5,28.3,00.0,38.2,31.4,18.4,0000.0,0010.53,0003.99,0002.80
2022-06-22 15:43:00,,0833.5,5.01,0.00,29.5,28.4,00.0,38.3,31.4,18.4,0000.0,0010.69,0003.98,0002.78
2022-06-22 15:44:00,,0833.5,4.99,0.00,29.5,28.5,00.0,38.3,31.4,18.4,0000.0,0010.38,0004.00,0002.77
2022-06-22 15:45:00,,0833.5,4.99,0.00,29.5,28.6,00.0,38.3,31.5,18.4,0000.0,0010.54,0003.96,0002.76
2022-06-22 15:46:00,,0833.5,5.01,0.00,29.6,28.6,00.0,38.3,31.5,18.3,0000.0,0010.58,0003.94,0002.77
2022-06-22 15:47:00,,0833.4,5.00,0.00,29.5,28.0,00.0,38.3,31.4,18.3,0000.0,0010.85,0003.95,0002.76
2022-06-22 15:48:00,,0833.4,5.00,0.00,29.5,27.2,00.0,38.2,31.2,18.3,0000.0,0010.77,0003.99,0002.79
2022-06-22 15:49:00,,0833.4,4.99,0.00,29.4,27.1,00.0,38.2,31.1,18.4,0000.0,0010.22,0004.02,0002.81
2022-06-22 15:50:00,,0833.4,5.00,0.00,29.4,27.1,00.0,38.2,31.1,18.4,0000.0,0010.13,0004.02,0002.84
2022-06-22 15:51:00,,0833.4,5.00,0.00,29.3,27.3,00.0,38.2,31.0,18.4,0000.0,0010.70,0004.06,0002.85
2022-06-22 15:52:00,,0833.4,5.00,0.00,29.3,27.4,00.0,38.1,31.1,18.5,0000.0,0010.89,0004.06,0002.86
2022-06-22 15:53:00,,0833.4,5.00,0.00,29.3,27.6,00.0,38.1,31.1,18.5,0000.0,0010.85,0004.08,0002.88
2022-06-22 15:54:00,,0833.4,5.00,0.00,29.3,27.7,00.0,38.1,31.2,18.5,0000.0,0010.80,0004.12,0002.90
2022-06-22 15:55:00,,0833.4,5.00,0.00,29.3,27.9,00.0,38.1,31.2,18.6,0000.0,0010.87,0004.12,0002.90
2022-06-22 15:56:00,,0833.4,5.00,0.00,29.3,28.0,00.0,38.1,31.2,18.5,0000.0,0010.27,0004.10,0002.93
2022-06-22 15:57:00,,0833.4,5.00,0.00,29.3,28.1,00.0,38.1,31.3,18.5,0000.0,0010.27,0004.12,0002.93
2022-06-22 15:58:00,,0833.4,5.01,0.00,29.4,28.3,00.0,38.2,31.3,18.5,0000.0,0010.43,0004.13,0002.93
2022-06-22 15:59:00,,0833.4,5.00,0.00,29.4,28.3,00.0,38.2,31.3,18.4,0000.0,0010.66,0004.13,0002.92
